Theta_e
336 340 344 346 347 348 348 348 348 347 347 347 346 346 346 344 342 341 339 337 337 336 334 334 332 332 332 333 335 336 334 339 341 342 344 345 344 343 343 342 342 341 344
335 340 343 346 347 348 348 348 347 347 345 346 345 344 343 341 339 336 335 333 333 332 331 330 328 327 327 327 330 331 330 334 337 338 340 343 344 345 345 343 343 341 342
338 342 343 344 345 346 346 345 345 344 343 342 341 340 338 336 335 332 331 329 329 329 328 327 326 325 325 325 325 327 325 327 327 328 329 336 340 342 342 340 341 340 342
339 341 341 341 344 345 344 343 342 341 340 339 337 336 334 332 330 328 327 326 326 326 326 325 324 323 323 323 322 321 321 320 319 318 321 325 332 337 336 336 336 337 337
338 340 340 341 343 344 342 341 340 339 338 336 334 332 330 328 327 326 325 324 324 324 324 324 323 322 321 320 319 318 317 315 313 312 314 320 325 330 332 331 330 330 331
333 337 339 341 343 341 341 339 338 336 335 333 331 328 326 325 324 323 322 322 322 322 322 321 320 320 319 318 317 316 314 311 308 309 312 316 320 326 328 327 326 326 327
326 330 333 337 339 338 337 335 333 332 330 328 326 324 323 322 321 320 320 321 321 321 320 318 318 317 317 316 314 313 311 308 304 307 310 314 319 323 325 324 324 324 324
321 322 324 326 331 333 332 331 329 327 325 323 321 320 320 319 319 319 319 318 318 318 317 316 315 314 314 313 312 310 309 305 301 302 308 311 318 321 322 322 323 323 324
319 319 320 320 321 324 325 326 324 322 320 318 316 315 314 314 314 314 315 315 315 315 314 313 312 310 311 311 310 308 306 304 300 301 305 310 315 319 321 321 321 322 323
316 316 315 315 315 315 318 320 320 317 315 313 311 309 307 308 310 310 309 310 310 311 311 311 309 308 307 307 307 306 303 300 299 300 305 310 314 317 319 319 320 321 322
313 313 312 311 310 310 310 310 312 313 310 308 306 306 304 302 301 303 306 307 307 307 308 308 307 305 302 301 303 303 299 298 299 299 302 309 313 315 317 318 319 320 321
309 309 310 309 306 307 306 305 304 303 303 303 302 302 301 301 302 300 301 301 302 302 303 304 303 300 298 297 298 298 298 298 298 298 300 307 311 314 316 318 318 319 319
309 309 308 306 305 306 305 304 303 302 302 302 302 301 300 299 299 298 298 297 297 296 296 297 296 296 296 296 297 297 297 297 298 298 299 306 309 313 315 316 318 318 318
308 307 306 305 302 302 303 301 300 300 300 301 301 300 299 298 298 297 296 296 295 295 295 295 295 295 296 295 296 296 296 297 297 298 299 305 309 312 315 318 316 316 315
306 307 305 303 301 301 301 300 299 299 298 298 298 298 298 297 296 296 296 295 294 295 295 295 294 295 295 295 295 295 296 296 297 298 300 304 308 311 315 314 313 313 314
306 306 305 302 300 300 299 299 298 298 297 297 297 297 297 296 296 295 295 294 294 294 294 294 293 294 294 294 294 295 295 296 297 298 300 302 308 309 310 310 310 310 311
304 305 303 303 300 299 299 298 298 298 298 297 297 297 297 296 295 295 295 295 294 294 294 294 294 294 294 294 294 294 295 296 297 298 299 301 301 303 305 306 306 306 307
304 301 302 302 299 298 298 297 297 297 297 297 297 296 296 296 295 295 295 294 294 294 293 293 293 293 293 293 293 294 295 296 297 298 299 298 298 297 298 301 301 302 303
297 303 300 300 299 298 297 297 296 296 296 297 296 296 296 296 295 294 294 294 293 293 292 292 293 292 292 292 293 293 295 295 294 295 296 296 296 296 296 295 297 296 300
297 298 301 299 298 297 297 296 296 296 296 296 296 296 296 296 295 294 294 293 293 292 292 292 291 292 292 291 291 291 295 295 295 295 295 295 295 295 295 294 295 294 296
296 296 297 297 297 296 295 295 294 295 295 295 296 296 296 296 295 294 294 293 292 292 291 291 291 290 291 291 291 292 292 292 294 294 295 295 294 294 294 294 294 294 294
292 294 295 296 296 296 296 295 295 295 295 295 296 296 296 296 296 295 294 294 292 292 291 290 290 290 290 290 289 288 289 291 292 292 293 293 293 293 293 293 293 293 294
290 291 294 296 295 295 296 295 294 294 294 294 294 294 295 295 295 295 294 294 293 292 291 290 290 289 289 290 290 289 288 287 287 291 291 291 292 292 292 292 292 293 293
289 291 294 295 295 295 295 295 294 293 293 292 294 294 293 293 293 294 294 293 292 292 291 291 291 290 289 289 290 290 290 289 287 286 290 290 291 291 291 292 292 293 293
288 289 292 293 294 294 294 294 293 292 293 293 292 291 291 292 292 292 293 292 292 292 291 290 290 289 289 289 289 289 288 288 288 286 285 287 290 291 291 291 292 293 293
287 288 289 289 289 291 291 291 292 291 290 290 290 289 289 290 290 290 290 290 291 291 291 291 291 290 289 289 289 289 288 288 287 286 285 286 286 288 290 291 291 292 292
Wind_Speed
2 4 2 4 9 11 13 13 12 13 13 14 14 17 17 17 16 15 14 14 14 15 15 15 15 15 15 14 14 13 13 14 13 9 11 11 12 14 14 14 12 12 13
6 5 1 5 11 15 16 17 17 18 18 19 19 18 17 16 16 14 14 14 15 15 15 15 16 15 15 15 15 14 15 16 15 15 12 10 11 15 17 16 15 13 13
3 4 4 5 11 15 14 15 17 18 18 17 19 16 17 16 14 14 15 14 15 16 15 15 15 15 15 15 15 15 16 16 17 16 15 9 11 16 17 16 15 15 15
1 5 6 8 12 16 16 16 16 16 18 18 17 17 14 13 13 13 14 14 15 14 14 14 14 15 15 15 15 15 15 15 16 15 9 10 9 15 14 14 14 14 14
7 8 7 12 15 16 14 14 16 15 17 18 16 14 13 13 14 14 14 14 14 14 14 15 14 14 14 14 14 14 14 14 14 11 10 10 8 12 14 14 13 13 14
9 9 10 13 17 17 15 15 15 14 17 17 15 13 14 14 14 14 14 14 14 14 15 15 14 14 14 15 15 14 14 14 10 9 8 9 9 12 13 13 13 13 12
9 10 11 14 15 16 16 15 13 14 15 16 15 14 14 14 14 14 14 14 14 14 15 15 14 14 14 14 14 14 15 13 9 8 8 8 9 11 12 12 12 12 11
10 10 10 12 11 15 15 14 13 13 13 15 14 14 14 14 15 14 14 14 14 14 14 14 14 14 13 13 13 13 14 13 8 8 8 7 10 10 10 10 11 11 11
8 8 6 7 10 17 16 14 13 13 13 14 14 14 14 15 15 14 14 13 13 14 14 13 14 13 13 13 13 12 12 12 7 5 6 5 10 9 9 10 10 10 11
7 6 7 5 7 7 7 11 11 13 13 13 12 13 13 13 14 14 12 13 13 13 13 13 13 12 12 12 12 11 10 9 7 5 4 5 9 9 9 9 10 10 10
6 5 4 5 5 7 6 8 9 12 11 12 9 11 8 6 7 9 12 12 13 12 12 11 12 12 11 10 11 10 8 4 5 4 3 9 9 8 8 8 9 9 11
3 4 4 4 5 5 6 5 5 5 3 5 5 6 5 6 6 7 9 11 11 11 11 11 11 10 8 5 4 6 4 4 3 3 3 9 8 7 7 8 8 8 10
2 2 3 4 4 4 4 3 2 2 3 3 5 4 5 4 4 4 3 4 4 8 4 6 6 6 7 5 5 4 4 4 3 3 4 7 6 7 7 7 7 10 12
3 3 2 3 3 4 3 3 3 2 2 3 3 4 3 3 3 4 3 4 5 4 5 5 4 5 5 6 5 5 4 4 3 2 3 7 7 7 8 10 11 12 12
3 3 4 3 3 3 3 3 2 2 2 3 3 3 3 3 3 3 4 4 4 4 4 5 4 5 5 6 6 5 4 4 3 1 1 7 7 8 11 11 12 12 13
4 5 4 5 4 3 2 2 2 2 3 2 2 3 4 3 3 3 3 4 4 4 4 4 4 5 4 5 6 5 5 4 3 3 3 4 9 10 11 12 13 13 14
5 4 6 6 5 5 4 3 3 3 3 2 2 3 4 4 4 3 3 3 3 3 4 4 4 4 4 4 5 4 3 4 3 4 3 3 4 10 11 12 13 15 14
7 7 5 6 7 5 4 3 3 3 2 2 2 2 3 4 3 3 3 3 3 3 3 4 4 4 4 5 5 4 2 2 4 4 4 4 4 4 6 11 13 14 14
6 7 7 8 8 7 5 4 3 3 2 2 1 1 2 3 3 2 2 2 3 3 3 4 3 3 4 6 4 3 2 3 3 1 3 4 4 4 3 6 12 11 12
6 6 6 6 7 6 4 3 2 1 1 1 1 1 2 1 2 2 1 2 2 2 3 4 4 3 2 6 4 2 0 1 2 3 2 2 3 3 3 6 6 5 12
5 6 4 6 7 6 2 2 1 1 1 1 1 2 2 2 2 1 1 1 2 3 3 4 3 4 2 6 3 1 1 2 3 1 1 1 1 2 3 6 5 4 6
7 7 3 4 6 4 2 2 1 1 1 1 1 1 1 1 1 0 1 1 2 2 3 3 3 2 1 5 3 1 3 1 1 1 2 2 2 3 3 6 7 8 6
8 8 5 3 6 5 4 3 2 2 1 1 2 2 3 3 3 2 1 1 2 2 2 2 2 3 3 1 4 2 1 2 4 1 1 3 3 3 6 6 6 7 5
7 7 4 3 5 4 4 3 3 2 2 1 1 1 2 4 3 3 3 2 2 1 3 2 1 1 1 2 1 0 1 1 2 5 1 2 3 6 5 5 7 6 5
6 6 4 4 5 4 3 3 3 3 1 1 1 2 2 3 4 4 3 3 2 1 2 3 3 3 3 2 3 1 2 2 4 5 6 4 5 4 7 5 6 5 5
5 5 4 4 4 4 5 5 5 5 3 2 2 2 2 2 3 5 5 4 4 3 3 3 4 5 5 5 4 5 4 4 2 4 5 7 10 6 6 8 6 5 4
Wind_Direction
24 339 309 158 143 121 111 108 106 107 104 97 94 85 78 72 68 66 67 65 61 54 51 48 46 43 39 36 38 34 31 31 31 50 48 52 67 67 60 51 41 45 43
292 269 234 149 133 117 112 108 102 89 80 73 71 72 73 72 71 63 65 63 61 57 49 48 43 41 40 38 38 37 32 31 33 34 30 43 49 64 59 57 47 41 33
274 133 134 133 128 111 106 98 91 91 85 80 72 65 66 64 67 66 63 56 59 56 50 48 48 44 42 41 40 39 40 37 34 29 29 31 41 46 51 39 41 43 33
79 114 125 129 116 105 96 92 93 93 96 89 80 77 77 75 73 67 66 63 57 58 58 53 48 45 46 46 41 36 40 43 41 36 33 29 30 40 40 38 36 32 27
65 75 99 109 100 98 92 95 99 100 104 96 94 92 86 80 73 68 62 60 57 58 56 51 48 46 43 45 43 43 45 47 43 41 36 28 28 35 34 34 33 27 19
62 66 81 101 101 98 99 92 93 100 95 97 100 99 89 80 72 66 62 58 54 49 49 51 47 42 42 40 37 39 40 42 45 46 40 27 29 27 30 30 27 23 24
56 61 60 70 92 96 96 97 97 93 95 98 95 89 85 81 74 68 59 56 51 51 46 41 44 41 38 38 39 37 38 36 37 37 32 25 25 28 28 23 20 20 20
62 53 63 57 70 87 90 94 93 93 93 93 90 87 82 75 70 64 62 57 53 48 46 39 38 35 38 38 39 37 37 38 34 33 28 18 14 20 26 26 19 16 16
69 62 54 60 57 68 66 73 87 89 89 87 84 82 79 73 68 64 58 55 52 49 45 40 40 36 32 32 34 34 37 36 40 35 20 12 10 12 20 22 22 19 14
79 71 68 55 70 77 82 80 85 87 87 85 80 79 74 71 68 65 55 53 49 45 42 40 40 36 30 33 28 27 32 31 36 29 22 20 7 12 20 24 18 19 22
74 74 70 70 78 79 72 69 64 77 77 78 69 72 72 71 69 56 57 50 45 42 42 39 37 33 28 25 23 22 20 29 25 27 7 5 4 13 24 28 27 25 25
98 80 78 90 79 87 96 77 69 72 69 78 81 73 66 61 59 65 56 48 46 38 33 34 32 27 26 19 13 16 19 20 27 17 2 360 360 14 26 35 37 30 27
156 124 109 110 90 96 96 91 86 87 76 70 70 74 69 66 58 54 50 37 27 32 29 24 18 23 18 10 12 9 11 17 15 358 353 359 6 26 31 35 44 37 28
192 174 154 124 119 99 97 94 96 97 82 76 74 67 76 65 61 56 50 40 31 18 19 18 10 7 16 13 9 359 10 8 7 6 7 358 27 34 43 47 38 30 22
213 202 193 171 167 147 138 129 121 101 92 87 74 65 66 72 63 60 55 39 32 17 16 6 3 2 7 2 3 2 1 351 354 35 47 12 45 47 52 45 35 28 21
236 223 201 197 187 172 153 144 131 124 126 113 100 78 83 85 71 57 49 38 29 17 8 358 0 357 3 355 358 4 359 8 24 61 66 56 55 54 49 43 30 19 10
240 226 211 202 187 185 173 161 159 166 154 138 126 98 91 83 78 68 54 36 25 12 358 356 2 4 359 356 3 5 16 26 58 64 69 72 65 50 50 38 24 9 358
263 227 205 194 185 181 174 168 176 171 158 141 133 108 91 100 90 70 53 35 8 6 8 357 5 353 5 2 352 12 28 68 70 64 73 78 69 60 44 35 15 1 351
283 248 216 194 183 174 165 162 166 162 158 155 151 139 120 109 106 87 63 38 13 14 16 360 352 2 349 353 345 19 52 92 43 39 101 84 69 64 47 18 2 359 356
298 272 233 191 175 162 140 126 117 146 176 171 188 193 166 156 142 117 86 46 24 14 12 6 356 353 349 345 330 353 149 173 31 56 121 104 77 56 19 1 354 349 350
1 337 253 185 171 152 133 137 164 216 180 221 224 223 192 173 158 122 74 33 31 26 9 2 342 354 6 348 319 8 276 247 242 271 199 188 301 345 345 351 348 340 340
342 344 298 208 169 164 133 138 125 136 132 145 129 92 88 85 81 115 26 8 17 355 6 11 21 348 358 16 17 290 349 236 253 240 235 258 299 322 339 346 338 338 335
353 339 318 199 159 162 152 125 105 101 107 105 74 78 37 46 49 40 21 354 358 1 348 349 356 15 346 4 25 353 317 318 326 309 241 282 297 311 328 333 326 328 321
343 336 359 130 147 159 159 142 142 141 139 131 109 85 61 41 42 42 37 17 343 325 309 310 277 253 209 287 311 94 293 287 302 305 296 268 297 308 310 316 316 309 307
349 352 15 74 82 102 114 131 133 132 129 129 120 98 37 24 44 48 39 31 4 313 278 266 258 230 222 245 224 225 228 241 240 253 287 304 293 296 300 293 301 289 293
356 10 27 63 66 85 99 99 114 119 120 112 56 46 22 17 38 30 24 19 4 347 328 296 264 242 240 241 244 235 234 243 222 236 265 282 291 298 298 294 284 276 267